フルス彗星

C/2023 T3 ( Fuls )

English version
Home page
Updated on May 21, 2024

---------------------------------------------------------------------

・ プロフィール

発見日 2023年10月15日
発見光度 18.5等
発見者 David Carson Fuls (Mt. Lemmon Survey)

・ 写真集

・ 軌道要素

Epoch 2024 Mar. 31.0 TT = JDT 2460400.5
T 2025 Jan. 25.38129 TT                                 Rudenko
q   3.5483439            (2000.0)            P               Q
z  +0.0014109      Peri.  302.84901     -0.90308721     +0.09897178
 +/-0.0000135      Node   246.00152     -0.02301836     -0.98283872
e   0.9949935      Incl.   27.22204     -0.42883988     -0.15566838
>From 452 observations 2023 Sept. 9-2024 May 9, mean residual 0".4.

・ 星図

・ 光度変化

        m1 = 7.7 + 5 logΔ + 10.0 log r

---------------------------------------------------------------------

軌道要素はM.P.E.C. 2024-J304に掲載されたものです。
星図はステラナビゲータ Ver.11 (アストロアーツ) で作成したものです。
光度グラフはComet for Windowsで作成したものです。

---------------------------------------------------------------------

Copyright(C) Seiichi Yoshida (comet@aerith.net). All rights reserved.